Time,TemperatureF,DewpointF,PressureIn,WindDirection,WindDirectionDegrees,WindSpeedMPH,WindSpeedGustMPH,Humidity,HourlyPrecipIn,Conditions,Clouds,dailyrainin,SoftwareType,DateUTC
2013-06-03 00:12:00,71.0,70.0,-100.00,ENE,60,0.0,2.0,97,0.00,,,0.01,,2013-06-03 05:12:00,
2013-06-03 00:22:00,71.0,70.0,-100.00,ENE,60,0.0,2.0,97,0.00,,,0.01,,2013-06-03 05:22:00,
2013-06-03 00:32:00,71.0,70.0,-100.00,ENE,60,0.0,2.0,97,0.00,,,0.01,,2013-06-03 05:32:00,
2013-06-03 00:42:00,71.0,70.0,-100.00,ENE,60,0.0,2.0,97,0.00,,,0.01,,2013-06-03 05:42:00,
2013-06-03 01:12:00,71.0,70.0,-100.00,NNW,337,0.0,0.0,98,0.00,,,0.01,,2013-06-03 06:12:00,
2013-06-03 01:22:00,71.0,70.0,-100.00,NNW,337,0.0,0.0,98,0.00,,,0.01,,2013-06-03 06:22:00,
2013-06-03 01:32:00,71.0,70.0,-100.00,NNW,337,0.0,0.0,98,0.00,,,0.01,,2013-06-03 06:32:00,
2013-06-03 01:42:00,71.0,70.0,-100.00,NNW,337,0.0,0.0,98,0.00,,,0.01,,2013-06-03 06:42:00,
2013-06-03 02:12:00,70.0,69.0,-100.00,NNW,329,0.0,1.0,98,0.00,,,0.01,,2013-06-03 07:12:00,
2013-06-03 02:22:00,70.0,69.0,-100.00,NNW,329,0.0,1.0,98,0.00,,,0.01,,2013-06-03 07:22:00,
2013-06-03 02:32:00,70.0,69.0,-100.00,NNW,329,0.0,1.0,98,0.00,,,0.01,,2013-06-03 07:32:00,
2013-06-03 02:42:00,70.0,69.0,-100.00,NNW,329,0.0,1.0,98,0.00,,,0.01,,2013-06-03 07:42:00,
2013-06-03 03:12:00,69.0,68.0,-100.00,NNE,27,0.0,0.0,98,0.00,,,0.01,,2013-06-03 08:12:00,
2013-06-03 03:22:00,69.0,68.0,-100.00,NNE,27,0.0,0.0,98,0.00,,,0.01,,2013-06-03 08:22:00,
2013-06-03 03:32:00,69.0,68.0,-100.00,NNE,27,0.0,0.0,98,0.00,,,0.01,,2013-06-03 08:32:00,
2013-06-03 03:42:00,69.0,68.0,-100.00,NNE,27,0.0,0.0,98,0.00,,,0.01,,2013-06-03 08:42:00,
2013-06-03 04:12:00,68.0,67.0,-100.00,ENE,65,0.0,0.0,98,0.00,,,0.01,,2013-06-03 09:12:00,
2013-06-03 04:22:00,68.0,67.0,-100.00,ENE,65,0.0,0.0,98,0.00,,,0.01,,2013-06-03 09:22:00,
2013-06-03 04:33:00,68.0,67.0,-100.00,ENE,65,0.0,0.0,98,0.00,,,0.01,,2013-06-03 09:33:00,
2013-06-03 04:42:00,68.0,67.0,-100.00,ENE,65,0.0,0.0,98,0.00,,,0.01,,2013-06-03 09:42:00,
2013-06-03 05:12:00,69.0,69.0,-100.00,NNW,327,0.0,0.0,99,0.00,,,0.01,,2013-06-03 10:12:00,
2013-06-03 05:22:00,69.0,69.0,-100.00,NNW,327,0.0,0.0,99,0.00,,,0.01,,2013-06-03 10:22:00,
2013-06-03 05:33:00,69.0,69.0,-100.00,NNW,327,0.0,0.0,99,0.00,,,0.01,,2013-06-03 10:33:00,
2013-06-03 05:42:00,69.0,69.0,-100.00,NNW,327,0.0,0.0,99,0.00,,,0.01,,2013-06-03 10:42:00,
2013-06-03 06:12:00,67.0,67.0,-100.00,North,355,0.0,0.0,99,0.00,,,0.01,,2013-06-03 11:12:00,
2013-06-03 06:22:00,67.0,67.0,-100.00,North,355,0.0,0.0,99,0.00,,,0.01,,2013-06-03 11:22:00,
2013-06-03 06:32:00,67.0,67.0,-100.00,North,355,0.0,0.0,99,0.00,,,0.01,,2013-06-03 11:32:00,
2013-06-03 06:42:00,67.0,67.0,-100.00,North,355,0.0,0.0,99,0.00,,,0.01,,2013-06-03 11:42:00,
2013-06-03 07:12:00,69.0,69.0,-100.00,NE,34,1.0,2.0,99,0.00,,,0.01,,2013-06-03 12:12:00,
2013-06-03 07:22:00,69.0,69.0,-100.00,NE,34,1.0,2.0,99,0.00,,,0.01,,2013-06-03 12:22:00,
2013-06-03 07:32:00,69.0,69.0,-100.00,NE,34,1.0,2.0,99,0.00,,,0.01,,2013-06-03 12:32:00,
2013-06-03 07:42:00,69.0,69.0,-100.00,NE,34,1.0,2.0,99,0.00,,,0.01,,2013-06-03 12:42:00,
2013-06-03 08:12:00,75.0,74.0,-100.00,NNW,343,2.0,3.0,98,0.00,,,0.00,,2013-06-03 13:12:00,
2013-06-03 08:22:00,75.0,74.0,-100.00,NNW,343,2.0,3.0,98,0.00,,,0.00,,2013-06-03 13:22:00,
2013-06-03 08:32:00,75.0,74.0,-100.00,NNW,343,2.0,3.0,98,0.00,,,0.00,,2013-06-03 13:32:00,
2013-06-03 08:42:00,75.0,74.0,-100.00,NNW,343,2.0,3.0,98,0.00,,,0.00,,2013-06-03 13:42:00,
2013-06-03 09:12:00,82.0,75.0,-100.00,West,281,3.0,5.0,79,0.00,,,0.00,,2013-06-03 14:12:00,
2013-06-03 09:22:00,82.0,75.0,-100.00,West,281,3.0,5.0,79,0.00,,,0.00,,2013-06-03 14:22:00,
2013-06-03 09:32:00,82.0,75.0,-100.00,West,281,3.0,5.0,79,0.00,,,0.00,,2013-06-03 14:32:00,
2013-06-03 09:42:00,82.0,75.0,-100.00,West,281,3.0,5.0,79,0.00,,,0.00,,2013-06-03 14:42:00,
2013-06-03 10:12:00,87.0,76.0,-100.00,East,81,2.0,8.0,69,0.00,,,0.00,,2013-06-03 15:12:00,
2013-06-03 10:22:00,87.0,76.0,-100.00,East,81,2.0,8.0,69,0.00,,,0.00,,2013-06-03 15:22:00,
2013-06-03 10:33:00,87.0,76.0,-100.00,East,81,2.0,8.0,69,0.00,,,0.00,,2013-06-03 15:33:00,
2013-06-03 10:43:00,87.0,76.0,-100.00,East,81,2.0,8.0,69,0.00,,,0.00,,2013-06-03 15:43:00,
2013-06-03 11:13:00,87.0,73.0,-100.00,ESE,111,3.0,7.0,63,0.00,,,0.00,,2013-06-03 16:13:00,
2013-06-03 11:23:00,87.0,73.0,-100.00,ESE,111,3.0,7.0,63,0.00,,,0.00,,2013-06-03 16:23:00,
2013-06-03 11:33:00,87.0,73.0,-100.00,ESE,111,3.0,7.0,63,0.00,,,0.00,,2013-06-03 16:33:00,
2013-06-03 11:42:00,87.0,73.0,-100.00,ESE,111,3.0,7.0,63,0.00,,,0.00,,2013-06-03 16:42:00,
2013-06-03 12:12:00,88.0,73.0,-100.00,North,4,3.0,7.0,61,0.00,,,0.00,,2013-06-03 17:12:00,
2013-06-03 12:22:00,88.0,73.0,-100.00,North,4,3.0,7.0,61,0.00,,,0.00,,2013-06-03 17:22:00,
2013-06-03 12:33:00,88.0,73.0,-100.00,North,4,3.0,7.0,61,0.00,,,0.00,,2013-06-03 17:33:00,
2013-06-03 12:42:00,88.0,73.0,-100.00,North,4,3.0,7.0,61,0.00,,,0.00,,2013-06-03 17:42:00,
2013-06-03 13:12:00,88.0,73.0,-100.00,NNW,328,2.0,5.0,62,0.00,,,0.00,,2013-06-03 18:12:00,
2013-06-03 13:22:00,88.0,73.0,-100.00,NNW,328,2.0,5.0,62,0.00,,,0.00,,2013-06-03 18:22:00,
2013-06-03 13:32:00,88.0,73.0,-100.00,NNW,328,2.0,5.0,62,0.00,,,0.00,,2013-06-03 18:32:00,
2013-06-03 13:42:00,88.0,73.0,-100.00,NNW,328,2.0,5.0,62,0.00,,,0.00,,2013-06-03 18:42:00,
2013-06-03 14:12:00,93.0,74.0,-100.00,South,184,3.0,9.0,54,0.00,,,0.00,,2013-06-03 19:12:00,
2013-06-03 14:22:00,93.0,74.0,-100.00,South,184,3.0,9.0,54,0.00,,,0.00,,2013-06-03 19:22:00,
2013-06-03 14:32:00,93.0,74.0,-100.00,South,184,3.0,9.0,54,0.00,,,0.00,,2013-06-03 19:32:00,
2013-06-03 14:42:00,93.0,74.0,-100.00,South,184,3.0,9.0,54,0.00,,,0.00,,2013-06-03 19:42:00,
2013-06-03 15:12:00,86.0,71.0,-100.00,ESE,109,4.0,10.0,61,0.00,,,0.00,,2013-06-03 20:12:00,
2013-06-03 15:22:00,86.0,71.0,-100.00,ESE,109,4.0,10.0,61,0.00,,,0.00,,2013-06-03 20:22:00,
2013-06-03 15:32:00,86.0,71.0,-100.00,ESE,109,4.0,10.0,61,0.00,,,0.00,,2013-06-03 20:32:00,
2013-06-03 15:42:00,86.0,71.0,-100.00,ESE,109,4.0,10.0,61,0.00,,,0.00,,2013-06-03 20:42:00,
2013-06-03 16:12:00,82.0,75.0,-100.00,SSE,160,3.0,9.0,79,0.00,,,0.00,,2013-06-03 21:12:00,
2013-06-03 16:22:00,82.0,75.0,-100.00,SSE,160,3.0,9.0,79,0.00,,,0.00,,2013-06-03 21:22:00,
2013-06-03 16:33:00,82.0,75.0,-100.00,SSE,160,3.0,9.0,79,0.00,,,0.00,,2013-06-03 21:33:00,
2013-06-03 16:43:00,82.0,75.0,-100.00,SSE,160,3.0,9.0,79,0.00,,,0.00,,2013-06-03 21:43:00,
2013-06-03 17:12:00,87.0,76.0,-100.00,SSW,197,4.0,8.0,71,0.00,,,0.00,,2013-06-03 22:12:00,
2013-06-03 17:22:00,87.0,76.0,-100.00,SSW,197,4.0,8.0,71,0.00,,,0.00,,2013-06-03 22:22:00,
2013-06-03 17:32:00,87.0,76.0,-100.00,SSW,197,4.0,8.0,71,0.00,,,0.00,,2013-06-03 22:32:00,
2013-06-03 17:42:00,87.0,76.0,-100.00,SSW,197,4.0,8.0,71,0.00,,,0.00,,2013-06-03 22:42:00,
2013-06-03 18:12:00,87.0,73.0,-100.00,South,177,3.0,7.0,64,0.00,,,0.00,,2013-06-03 23:12:00,
2013-06-03 18:22:00,87.0,73.0,-100.00,South,177,3.0,7.0,64,0.00,,,0.00,,2013-06-03 23:22:00,
2013-06-03 18:32:00,87.0,73.0,-100.00,South,177,3.0,7.0,64,0.00,,,0.00,,2013-06-03 23:32:00,
2013-06-03 18:42:00,87.0,73.0,-100.00,South,177,3.0,7.0,64,0.00,,,0.00,,2013-06-03 23:42:00,
2013-06-03 19:12:00,79.0,70.0,-100.00,ESE,119,2.0,8.0,74,0.00,,,0.00,,2013-06-04 00:12:00,
2013-06-03 19:22:00,79.0,70.0,-100.00,ESE,119,2.0,8.0,74,0.00,,,0.00,,2013-06-04 00:22:00,
2013-06-03 19:32:00,79.0,70.0,-100.00,ESE,119,2.0,8.0,74,0.00,,,0.00,,2013-06-04 00:32:00,
2013-06-03 19:42:00,79.0,70.0,-100.00,ESE,119,2.0,8.0,74,0.00,,,0.00,,2013-06-04 00:42:00,
2013-06-03 20:12:00,78.0,73.0,-100.00,ESE,111,1.0,3.0,84,0.00,,,0.00,,2013-06-04 01:12:00,
2013-06-03 20:22:00,78.0,73.0,-100.00,ESE,111,1.0,3.0,84,0.00,,,0.00,,2013-06-04 01:22:00,
2013-06-03 20:32:00,78.0,73.0,-100.00,ESE,111,1.0,3.0,84,0.00,,,0.00,,2013-06-04 01:32:00,
2013-06-03 20:42:00,78.0,73.0,-100.00,ESE,111,1.0,3.0,84,0.00,,,0.00,,2013-06-04 01:42:00,
2013-06-03 21:12:00,75.0,72.0,-100.00,SSE,159,1.0,2.0,89,0.00,,,0.00,,2013-06-04 02:12:00,
2013-06-03 21:22:00,75.0,72.0,-100.00,SSE,159,1.0,2.0,89,0.00,,,0.00,,2013-06-04 02:22:00,
2013-06-03 21:32:00,75.0,72.0,-100.00,SSE,159,1.0,2.0,89,0.00,,,0.00,,2013-06-04 02:32:00,
2013-06-03 21:42:00,75.0,72.0,-100.00,SSE,159,1.0,2.0,89,0.00,,,0.00,,2013-06-04 02:42:00,
2013-06-03 22:12:00,74.0,72.0,-100.00,SW,220,0.0,2.0,94,0.00,,,0.00,,2013-06-04 03:12:00,
2013-06-03 22:22:00,74.0,72.0,-100.00,SW,220,0.0,2.0,94,0.00,,,0.00,,2013-06-04 03:22:00,
2013-06-03 22:32:00,74.0,72.0,-100.00,SW,220,0.0,2.0,94,0.00,,,0.00,,2013-06-04 03:32:00,
2013-06-03 22:43:00,74.0,72.0,-100.00,SW,220,0.0,2.0,94,0.00,,,0.00,,2013-06-04 03:43:00,
2013-06-03 23:13:00,73.0,71.0,-100.00,ESE,108,0.0,0.0,95,0.00,,,0.00,,2013-06-04 04:13:00,
2013-06-03 23:23:00,73.0,71.0,-100.00,ESE,108,0.0,0.0,95,0.00,,,0.00,,2013-06-04 04:23:00,
2013-06-03 23:33:00,73.0,71.0,-100.00,ESE,108,0.0,0.0,95,0.00,,,0.00,,2013-06-04 04:33:00,
2013-06-03 23:42:00,73.0,71.0,-100.00,ESE,108,0.0,0.0,95,0.00,,,0.00,,2013-06-04 04:42:00,